Weather History for Boonville, MO

Change the Weather History Date:

Saturday, January 19, 2013

  Actual Average Record
Temperature  
Mean Temperature 51 °F -  
Max Temperature 59 °F 36 °F 67 °F (1951)
Min Temperature 42 °F 18 °F -3 °F (1970)
Degree Days  
Heating Degree Days 14    
Growing Degree Days 1 (Base 50)    
Moisture  
Dew Point 31 °F    
Average Humidity 50    
Maximum Humidity 61    
Minimum Humidity 34    
Precipitation  
Precipitation 0.00 in - - ()
Sea Level Pressure  
Sea Level Pressure 30.05 in    
Wind  
Wind Speed 10 mph (WSW)    
Max Wind Speed 15 mph    
Max Gust Speed 23 mph    
Visibility 10 miles    
Events      
Averages and records for this station are not official NWS values.
T = Trace of Precipitation, MM = Missing Value Source: NWS Daily Summary

Daily Weather History Graph

Daily Weather History Graph

Search for Another Location

Airport:

Trip Planner

Search our weather history database for the weather conditions in past years. The results will help you decide how hot, cold, wet, or windy it might be!

Date:

Astronomy

Jan. 19, 2013 Rise Set
Actual Time 7:26 AM CST 5:17 PM CST
Civil Twilight 6:57 AM CST 5:46 PM CST
Nautical Twilight 6:24 AM CST 6:19 PM CST
Astronomical Twilight 5:52 AM CST 6:50 PM CST
Moon 11:43 AM CST 1:01 AM CST
Length of Visible Light 10h 49m
Length of Day
9h 51m
First Quarter, 57% of the Moon is Illuminated
Jan 19
First Quarter
Jan 26
Full
Feb 3
Last Quarter
Feb 10
New
Feb 17
First Quarter

Hourly Weather History & Observations

Time (CST) Temp. Windchill Dew Point Humidity Pressure Visibility Wind Dir Wind Speed Gust Speed Precip Events Conditions
12:15 AM 45.0 °F 40.6 °F 27.7 °F 51% 30.07 in 10.0 mi SSW 8.1 mph - N/A   Clear
12:35 AM 44.8 °F 39.4 °F 28.2 °F 52% 30.07 in 10.0 mi SSW 10.4 mph 16.1 mph N/A   Clear
12:55 AM 45.0 °F 40.6 °F 28.6 °F 53% 30.07 in 10.0 mi South 8.1 mph - N/A   Clear
1:15 AM 44.4 °F 39.5 °F 28.9 °F 55% 30.06 in 10.0 mi South 9.2 mph - N/A   Clear
1:35 AM 44.6 °F 41.4 °F 29.1 °F 55% 30.07 in 10.0 mi SSW 5.8 mph - N/A   Clear
1:55 AM 44.2 °F 39.7 °F 29.3 °F 56% 30.06 in 10.0 mi South 8.1 mph - N/A   Clear
2:15 AM 44.2 °F 39.2 °F 29.3 °F 56% 30.06 in 10.0 mi South 9.2 mph - N/A   Clear
2:35 AM 44.2 °F 39.2 °F 29.5 °F 56% 30.05 in 10.0 mi SSW 9.2 mph 16.1 mph N/A   Clear
2:55 AM 44.2 °F 38.0 °F 29.7 °F 57% 30.05 in 10.0 mi SSW 12.7 mph 16.1 mph N/A   Clear
3:15 AM 44.4 °F 39.0 °F 29.8 °F 57% 30.04 in 10.0 mi SSW 10.4 mph 17.3 mph N/A   Clear
3:35 AM 44.6 °F 38.4 °F 30.0 °F 57% 30.03 in 10.0 mi SSW 12.7 mph 18.4 mph N/A   Clear
3:55 AM 44.8 °F 39.4 °F 30.2 °F 57% 30.03 in 10.0 mi SSW 10.4 mph 17.3 mph N/A   Clear
4:15 AM 44.6 °F 39.2 °F 30.6 °F 58% 30.03 in 10.0 mi SSW 10.4 mph 19.6 mph N/A   Clear
4:35 AM 44.4 °F 39.5 °F 30.7 °F 59% 30.02 in 10.0 mi SSW 9.2 mph - N/A   Clear
4:55 AM 44.2 °F 40.3 °F 30.9 °F 60% 30.02 in 10.0 mi SSW 6.9 mph - N/A   Clear
5:15 AM 44.4 °F 39.0 °F 31.1 °F 60% 30.02 in 10.0 mi SW 10.4 mph - N/A   Clear
5:35 AM 44.8 °F 39.4 °F 31.1 °F 59% 30.01 in 10.0 mi SSW 10.4 mph - N/A   Clear
6:35 AM 44.6 °F 38.8 °F 31.5 °F 60% 30.00 in 10.0 mi SSW 11.5 mph 16.1 mph N/A   Clear
6:55 AM 44.6 °F 40.2 °F 31.5 °F 60% 30.00 in 10.0 mi SSW 8.1 mph - N/A   Clear
7:15 AM 44.2 °F 38.0 °F 31.5 °F 61% 30.00 in 10.0 mi SSW 12.7 mph 18.4 mph N/A   Clear
7:55 AM 45.0 °F 38.2 °F 31.6 °F 60% 30.00 in 10.0 mi SW 15.0 mph 21.9 mph N/A   Clear
8:15 AM 45.7 °F 40.2 °F 31.6 °F 58% 30.00 in 10.0 mi SW 11.5 mph 21.9 mph N/A   Clear
8:35 AM 46.4 °F 40.1 °F 31.8 °F 57% 30.00 in 10.0 mi SW 15.0 mph 21.9 mph N/A   Clear
9:35 AM 49.6 °F - 32.2 °F 51% 30.01 in 10.0 mi WSW 11.5 mph 19.6 mph N/A   Clear
9:55 AM 50.5 °F - 32.5 °F 50% 30.02 in 10.0 mi SW 13.8 mph 20.7 mph N/A   Clear
10:15 AM 51.4 °F - 32.7 °F 49% 30.02 in 10.0 mi WSW 10.4 mph 23.0 mph N/A   Clear
10:35 AM 52.2 °F - 32.9 °F 48% 30.03 in 10.0 mi WSW 13.8 mph 19.6 mph N/A   Clear
11:15 AM 53.1 °F - 33.4 °F 47% 30.01 in 10.0 mi WSW 10.4 mph 18.4 mph N/A   Clear
11:35 AM 53.8 °F - 33.6 °F 46% 29.99 in 10.0 mi WSW 12.7 mph 19.6 mph N/A   Clear
11:55 AM 54.1 °F - 33.6 °F 46% 29.99 in 10.0 mi WSW 15.0 mph 20.7 mph N/A   Clear
12:15 PM 54.9 °F - 33.4 °F 44% 29.99 in 10.0 mi WSW 15.0 mph 20.7 mph N/A   Clear
12:35 PM 55.6 °F - 33.4 °F 43% 29.98 in 10.0 mi WSW 13.8 mph 19.6 mph N/A   Clear
12:55 PM 56.1 °F - 33.4 °F 42% 29.98 in 10.0 mi SW 15.0 mph 20.7 mph N/A   Clear
1:15 PM 57.0 °F - 33.4 °F 41% 29.97 in 10.0 mi SW 13.8 mph 17.3 mph N/A   Clear
1:35 PM 57.7 °F - 33.6 °F 40% 29.97 in 10.0 mi WSW 11.5 mph - N/A   Clear
1:55 PM 57.7 °F - 33.4 °F 40% 29.96 in 10.0 mi WSW 11.5 mph 18.4 mph N/A   Clear
2:15 PM 58.5 °F - 33.4 °F 39% 29.96 in 10.0 mi WSW 11.5 mph 18.4 mph N/A   Clear
2:35 PM 59.0 °F - 32.9 °F 37% 29.96 in 10.0 mi WSW 10.4 mph 17.3 mph N/A   Clear
2:55 PM 59.2 °F - 32.5 °F 37% 29.96 in 10.0 mi WSW 11.5 mph 17.3 mph N/A   Clear
3:15 PM 59.5 °F - 32.4 °F 36% 29.97 in 10.0 mi WSW 11.5 mph 18.4 mph N/A   Clear
3:35 PM 59.9 °F - 31.3 °F 34% 29.98 in 10.0 mi WSW 10.4 mph 18.4 mph N/A   Clear
3:55 PM 59.4 °F - 30.9 °F 34% 29.99 in 10.0 mi WSW 9.2 mph 18.4 mph N/A   Clear
4:15 PM 59.0 °F - 31.3 °F 35% 29.99 in 10.0 mi WSW 10.4 mph 16.1 mph N/A   Clear
4:35 PM 58.5 °F - 31.5 °F 36% 30.00 in 10.0 mi WSW 9.2 mph - N/A   Scattered Clouds
4:55 PM 57.2 °F - 31.8 °F 38% 30.01 in 10.0 mi WSW 8.1 mph - N/A   Clear
5:15 PM 55.8 °F - 32.2 °F 41% 30.02 in 10.0 mi WSW 5.8 mph - N/A   Clear
5:35 PM 54.1 °F - 32.2 °F 43% 30.03 in 10.0 mi WSW 6.9 mph - N/A   Clear
5:55 PM 52.9 °F - 32.0 °F 45% 30.04 in 10.0 mi WSW 5.8 mph - N/A   Clear
6:15 PM 52.3 °F - 32.0 °F 46% 30.05 in 10.0 mi WSW 5.8 mph - N/A   Clear
6:35 PM 51.8 °F - 31.6 °F 46% 30.05 in 10.0 mi WSW 6.9 mph - N/A   Clear
6:55 PM 51.6 °F - 31.5 °F 46% 30.07 in 10.0 mi West 5.8 mph - N/A   Clear
7:15 PM 51.3 °F - 31.5 °F 47% 30.08 in 10.0 mi West 6.9 mph - N/A   Clear
7:35 PM 50.0 °F - 31.5 °F 49% 30.09 in 10.0 mi WNW 4.6 mph - N/A   Clear
7:55 PM 49.8 °F - 31.1 °F 49% 30.10 in 10.0 mi WNW 5.8 mph - N/A   Clear
8:15 PM 49.1 °F - 30.2 °F 48% 30.11 in 10.0 mi NW 5.8 mph - N/A   Clear
8:35 PM 47.7 °F - 29.8 °F 50% 30.13 in 10.0 mi NW 9.2 mph - N/A   Clear
8:55 PM 48.0 °F - 29.1 °F 48% 30.14 in 10.0 mi WNW 5.8 mph - N/A   Clear
9:15 PM 47.5 °F - 28.9 °F 49% 30.14 in 10.0 mi WNW 4.6 mph - N/A   Clear
9:35 PM 46.9 °F - 28.8 °F 49% 30.16 in 10.0 mi WNW 6.9 mph - N/A   Clear
9:55 PM 45.7 °F 41.5 °F 28.9 °F 52% 30.16 in 10.0 mi NW 8.1 mph - N/A   Clear
10:15 PM 45.5 °F 40.8 °F 29.1 °F 53% 30.17 in 10.0 mi NW 9.2 mph - N/A   Clear
10:35 PM 44.6 °F 39.7 °F 29.5 °F 55% 30.18 in 10.0 mi NW 9.2 mph - N/A   Clear
10:55 PM 43.7 °F 38.6 °F 29.3 °F 57% 30.19 in 10.0 mi NW 9.2 mph - N/A   Clear
11:15 PM 44.1 °F 39.5 °F 28.9 °F 55% 30.19 in 10.0 mi NW 8.1 mph - N/A   Clear
11:35 PM 43.2 °F 39.0 °F 29.1 °F 58% 30.20 in 10.0 mi NW 6.9 mph - N/A   Clear
11:55 PM 42.3 °F 36.3 °F 29.1 °F 60% 30.20 in 10.0 mi NW 10.4 mph - N/A   Clear